Regional Weather Roundup
Issued by NWS

Home | Current Version | Previous Version | Graphics & Text | Print | Product List | Glossary On
Versions: 1 2 3 4 5 6 7 8 9 10 11 12 13 14 15 16 17 18 19 20 21 22 23 24 25 26 27 28 29 30 31 32 33 34 35 36 37 38 39 40 41 42 43 44 45 46 47 48 49 50
000
ASUS43 KLMK 202202
RWRKY
KENTUCKY REGIONAL WEATHER ROUNDUP
NATIONAL WEATHER SERVICE LOUISVILLE KY
600 PM EDT MON OCT 20 2014

NOTE "FAIR" INDICATES FEW OR NO CLOUDS BELOW 12,000 FEET
WITH NO SIGNIFICANT WEATHER AND/OR OBSTRUCTIONS TO VISIBILITY.

KYZ001>023-026-027-061>063-070>075-202300-
WESTERN AND SOUTH CENTRAL KENTUCKY

CITY           SKY/WX    TMP DP  RH WIND       PRES   REMARKS
PADUCAH        SUNNY     72  54  53 W15       29.93S
HENDERSON      MOSUNNY   72  52  49 SW13      29.89F
OWENSBORO      SUNNY     71  55  56 SW14G21   29.90S
HOPKINSVILLE   SUNNY     68  53  58 SW13      29.94F
BOWLING GREEN  SUNNY     68  49  50 SW12      29.94F
GLASGOW        NOT AVBL
$$

KYZ024-025-028>034-038-045-046-053-202300-
NORTH CENTRAL KENTUCKY

CITY           SKY/WX    TMP DP  RH WIND       PRES   REMARKS
LOUISVILLE/SDF PTSUNNY   67  52  58 SW16G22   29.89R
LOUISVILLE/LOU PTSUNNY   66  51  58 SW8       29.89S
FORT KNOX      PTSUNNY   66  52  59 SW10      29.89S
$$

KYZ035>037-039>044-047>052-055>060-089>105-202300-
NORTHEAST KENTUCKY

CITY           SKY/WX    TMP DP  RH WIND       PRES   REMARKS
LEXINGTON      CLEAR     64  48  56 SW9       29.91R
COVINGTON      PTCLDY    64  50  60 SW8       29.86F
FRANKFORT      CLEAR     63  49  60 SW12      29.89R
$$

KYZ054-064>069-076>088-106>120-202300-
SOUTHEAST KENTUCKY

CITY           SKY/WX    TMP DP  RH WIND       PRES   REMARKS
JACKSON        PTCLDY    57  49  74 VRB6      29.94F
LONDON         MOCLDY    63  47  55 SW8       29.95F
SOMERSET       PTCLDY    61  45  55 W13       29.97F
MIDDLESBORO    NOT AVBL
MONTICELLO     PTCLDY    63  49  60 SW9       29.98F
$$



USA.gov is the U.S. government's official web portal to all federal, state and local government web resources and services.